SAS50D EKCH-ESSA

Flight info

Callsign SAS50D
Flight time 0h 51m
Altitude 39000
Route KEMAX N851 ROXEN DCT BEDOS N851 PELUP Z226 NILUG
Aircraft A320/M-SDE3FGHIJ1RWXYZ/ALB1

Departure

Time 2026-05-04 14:04
Airport Copenhagen Kastrup Airport (EKCH)

Arrival

Time 2026-05-04 14:56
Airport Stockholm-Arlanda Airport (ESSA)
Time Latitude Longitude Altitude Speed Heading
2026-05-04 13:27 55.62781 12.64158 19 ft 0 kts 123°
2026-05-04 13:55 55.62785 12.64148 17 ft 4 kts 123°
2026-05-04 13:55 55.62800 12.64108 20 ft 4 kts 123°
2026-05-04 13:56 55.62812 12.64076 18 ft 4 kts 117°
2026-05-04 13:56 55.62818 12.64034 17 ft 4 kts 76°
2026-05-04 13:56 55.62789 12.63976 18 ft 4 kts 44°
2026-05-04 13:57 55.62776 12.63939 21 ft 4 kts 90°
2026-05-04 13:57 55.62782 12.63899 19 ft 4 kts 115°
2026-05-04 13:58 55.62791 12.63867 19 ft 0 kts 115°
2026-05-04 13:59 55.62782 12.63900 19 ft 4 kts 116°
2026-05-04 14:00 55.62752 12.63928 17 ft 6 kts 189°
2026-05-04 14:00 55.62642 12.63881 18 ft 11 kts 138°
2026-05-04 14:00 55.62594 12.64006 17 ft 14 kts 123°
2026-05-04 14:01 55.62538 12.64158 17 ft 16 kts 123°
2026-05-04 14:01 55.62472 12.64331 17 ft 18 kts 127°
2026-05-04 14:01 55.62355 12.64437 17 ft 0 kts 195°
2026-05-04 14:02 55.62346 12.64433 17 ft 4 kts 197°
2026-05-04 14:02 55.62269 12.64393 16 ft 18 kts 196°
2026-05-04 14:02 55.62140 12.64298 17 ft 21 kts 206°
2026-05-04 14:02 55.62000 12.64178 17 ft 23 kts 204°
2026-05-04 14:03 55.61853 12.64069 17 ft 18 kts 189°
2026-05-04 14:03 55.61745 12.64081 19 ft 16 kts 174°
2026-05-04 14:03 55.61644 12.64091 21 ft 10 kts 182°
2026-05-04 14:03 55.61578 12.64003 21 ft 18 kts 223°
2026-05-04 14:04 55.60713 12.62660 22 ft 143 kts 221°
2026-05-04 14:04 55.59898 12.61398 338 ft 161 kts 225°
2026-05-04 14:04 55.59061 12.60067 1109 ft 163 kts 226°
2026-05-04 14:05 55.57146 12.57220 2209 ft 205 kts 210°
2026-05-04 14:05 55.55652 12.56744 2809 ft 238 kts 177°
2026-05-04 14:05 55.54017 12.57823 3337 ft 268 kts 146°
2026-05-04 14:06 55.52775 12.60365 4150 ft 282 kts 117°
2026-05-04 14:06 55.52298 12.63743 5070 ft 290 kts 89°
2026-05-04 14:06 55.52636 12.67249 6046 ft 293 kts 67°
2026-05-04 14:06 55.53676 12.70334 6959 ft 294 kts 43°
2026-05-04 14:07 55.55268 12.72581 7876 ft 296 kts 30°
2026-05-04 14:07 55.56982 12.74647 8749 ft 301 kts 30°
2026-05-04 14:07 55.58739 12.76752 9614 ft 307 kts 30°
2026-05-04 14:07 55.60529 12.78898 10234 ft 320 kts 30°
2026-05-04 14:08 55.62444 12.81194 10532 ft 342 kts 30°
2026-05-04 14:08 55.64440 12.83605 11150 ft 351 kts 31°
2026-05-04 14:08 55.66457 12.86096 11883 ft 356 kts 31°
2026-05-04 14:08 55.68488 12.88656 12613 ft 361 kts 31°
2026-05-04 14:09 55.72611 12.93918 14056 ft 369 kts 32°
2026-05-04 14:09 55.74708 12.96596 14713 ft 373 kts 31°
2026-05-04 14:10 55.78966 13.02040 16006 ft 381 kts 32°
2026-05-04 14:10 55.81101 13.04887 16628 ft 386 kts 33°
2026-05-04 14:10 55.83217 13.07877 17254 ft 391 kts 35°
2026-05-04 14:10 55.85326 13.10963 17897 ft 395 kts 35°
2026-05-04 14:11 55.87447 13.14116 18542 ft 399 kts 36°
2026-05-04 14:11 55.91758 13.20497 19731 ft 406 kts 35°
2026-05-04 14:11 55.93927 13.23675 20325 ft 410 kts 35°
2026-05-04 14:12 55.96139 13.26898 20914 ft 413 kts 34°
2026-05-04 14:12 55.98380 13.30159 21468 ft 417 kts 34°
2026-05-04 14:12 56.02914 13.36772 22594 ft 424 kts 34°
2026-05-04 14:13 56.05206 13.40127 23172 ft 428 kts 35°
2026-05-04 14:13 56.07513 13.43517 23701 ft 431 kts 35°
2026-05-04 14:13 56.09841 13.46941 24174 ft 434 kts 35°
2026-05-04 14:13 56.12177 13.50380 24682 ft 436 kts 35°
2026-05-04 14:14 56.14533 13.53846 25168 ft 438 kts 35°
2026-05-04 14:14 56.19270 13.60831 26068 ft 443 kts 35°
2026-05-04 14:14 56.21656 13.64355 26515 ft 446 kts 35°
2026-05-04 14:15 56.26470 13.71489 27358 ft 451 kts 35°
2026-05-04 14:15 56.31327 13.78720 28195 ft 456 kts 36°
2026-05-04 14:16 56.36233 13.86045 29105 ft 459 kts 35°
2026-05-04 14:16 56.38691 13.89726 29532 ft 461 kts 36°
2026-05-04 14:17 56.43652 13.97155 30203 ft 468 kts 36°
2026-05-04 14:17 56.46138 14.00894 30425 ft 473 kts 36°
2026-05-04 14:17 56.51220 14.08581 31039 ft 479 kts 36°
2026-05-04 14:18 56.53785 14.12468 31357 ft 482 kts 36°
2026-05-04 14:18 56.58926 14.20268 32250 ft 480 kts 36°
2026-05-04 14:19 56.64027 14.28024 33236 ft 477 kts 36°
2026-05-04 14:19 56.66568 14.31892 33666 ft 476 kts 36°
2026-05-04 14:19 56.69107 14.35772 34061 ft 476 kts 36°
2026-05-04 14:19 56.71640 14.39655 34419 ft 476 kts 36°
2026-05-04 14:20 56.74170 14.43540 34759 ft 476 kts 36°
2026-05-04 14:20 56.76702 14.47436 35099 ft 476 kts 36°
2026-05-04 14:20 56.79229 14.51333 35424 ft 476 kts 37°
2026-05-04 14:21 56.84285 14.59144 36108 ft 476 kts 37°
2026-05-04 14:21 56.86810 14.63053 36417 ft 476 kts 37°
2026-05-04 14:21 56.89342 14.66979 36717 ft 476 kts 37°
2026-05-04 14:21 56.91871 14.70904 37010 ft 477 kts 37°
2026-05-04 14:22 56.94394 14.74834 37302 ft 477 kts 37°
2026-05-04 14:22 56.96920 14.78777 37563 ft 477 kts 37°
2026-05-04 14:22 56.99443 14.82731 37839 ft 477 kts 37°
2026-05-04 14:22 57.01966 14.86692 38113 ft 478 kts 37°
2026-05-04 14:23 57.07024 14.94633 38559 ft 479 kts 37°
2026-05-04 14:23 57.09561 14.98617 38729 ft 480 kts 37°
2026-05-04 14:24 57.14642 15.06632 38793 ft 481 kts 37°
2026-05-04 14:24 57.19718 15.14683 38791 ft 481 kts 38°
2026-05-04 14:25 57.24754 15.22697 38781 ft 482 kts 38°
2026-05-04 14:25 57.32361 15.34867 38776 ft 482 kts 38°
2026-05-04 14:26 57.37434 15.43014 38784 ft 483 kts 38°
2026-05-04 14:26 57.42515 15.51189 38769 ft 483 kts 38°
2026-05-04 14:27 57.47586 15.59397 38771 ft 484 kts 38°
2026-05-04 14:27 57.52648 15.67643 38785 ft 484 kts 38°
2026-05-04 14:28 57.57720 15.75911 38774 ft 485 kts 38°
2026-05-04 14:28 57.62790 15.84201 38765 ft 485 kts 38°
2026-05-04 14:29 57.72882 16.00823 38755 ft 485 kts 38°
2026-05-04 14:30 57.77941 16.09210 38474 ft 485 kts 38°
2026-05-04 14:30 57.82988 16.17611 37470 ft 485 kts 38°
2026-05-04 14:31 57.85504 16.21813 36895 ft 484 kts 38°
2026-05-04 14:31 57.90544 16.30243 35548 ft 487 kts 38°
2026-05-04 14:32 57.95563 16.38669 34648 ft 480 kts 38°
2026-05-04 14:32 57.98044 16.42844 34171 ft 478 kts 38°
2026-05-04 14:32 58.00518 16.47012 33647 ft 476 kts 37°
2026-05-04 14:32 58.02974 16.51161 33122 ft 473 kts 38°
2026-05-04 14:33 58.04591 16.53901 32801 ft 470 kts 37°
2026-05-04 14:33 58.07010 16.58005 32314 ft 466 kts 37°
2026-05-04 14:33 58.09411 16.62085 31836 ft 462 kts 37°
2026-05-04 14:33 58.11928 16.65648 31634 ft 442 kts 24°
2026-05-04 14:34 58.14583 16.68380 31545 ft 428 kts 22°
2026-05-04 14:34 58.17171 16.71018 31435 ft 417 kts 22°
2026-05-04 14:34 58.19694 16.73589 31329 ft 407 kts 22°
2026-05-04 14:35 58.24625 16.78583 31191 ft 402 kts 21°
2026-05-04 14:35 58.29563 16.83555 31005 ft 402 kts 21°
2026-05-04 14:36 58.34497 16.88551 30833 ft 401 kts 21°
2026-05-04 14:36 58.39400 16.93561 30654 ft 399 kts 21°
2026-05-04 14:36 58.41871 16.96091 30476 ft 412 kts 21°
2026-05-04 14:37 58.44458 16.98726 30327 ft 430 kts 22°
2026-05-04 14:37 58.49762 17.04179 30123 ft 434 kts 22°
2026-05-04 14:37 58.52419 17.06929 29999 ft 434 kts 22°
2026-05-04 14:38 58.55071 17.09685 29872 ft 434 kts 22°
2026-05-04 14:38 58.57735 17.12445 28935 ft 440 kts 22°
2026-05-04 14:38 58.60425 17.15230 28481 ft 435 kts 22°
2026-05-04 14:38 58.63069 17.17978 28042 ft 430 kts 22°
2026-05-04 14:39 58.65688 17.20708 27607 ft 426 kts 22°
2026-05-04 14:39 58.68279 17.23418 27166 ft 424 kts 22°
2026-05-04 14:39 58.70862 17.26119 26726 ft 421 kts 22°
2026-05-04 14:40 58.76005 17.31486 25836 ft 420 kts 22°
2026-05-04 14:40 58.78570 17.34168 25387 ft 419 kts 22°
2026-05-04 14:40 58.81097 17.36821 24927 ft 419 kts 22°
2026-05-04 14:40 58.83653 17.39511 24457 ft 419 kts 23°
2026-05-04 14:41 58.86217 17.42211 23973 ft 420 kts 23°
2026-05-04 14:41 58.88788 17.44919 23481 ft 420 kts 23°
2026-05-04 14:41 58.93893 17.50325 22549 ft 416 kts 23°
2026-05-04 14:42 58.98867 17.55918 21682 ft 411 kts 26°
2026-05-04 14:42 59.01314 17.58810 21137 ft 410 kts 26°
2026-05-04 14:42 59.03738 17.61703 20628 ft 409 kts 26°
2026-05-04 14:43 59.06142 17.64565 20213 ft 404 kts 26°
2026-05-04 14:43 59.08545 17.67402 19772 ft 400 kts 26°
2026-05-04 14:43 59.10929 17.70197 19291 ft 398 kts 26°
2026-05-04 14:43 59.13257 17.72919 18807 ft 397 kts 25°
2026-05-04 14:44 59.15608 17.75666 18368 ft 393 kts 25°
2026-05-04 14:44 59.17947 17.78406 17968 ft 390 kts 26°
2026-05-04 14:44 59.20266 17.81134 17472 ft 387 kts 26°
2026-05-04 14:44 59.22560 17.83839 16962 ft 385 kts 26°
2026-05-04 14:45 59.24838 17.86525 16536 ft 382 kts 25°
2026-05-04 14:45 59.27108 17.89205 16066 ft 380 kts 25°
2026-05-04 14:45 59.29354 17.91863 15635 ft 376 kts 26°
2026-05-04 14:45 59.31583 17.94507 15190 ft 373 kts 26°
2026-05-04 14:46 59.33795 17.97137 14775 ft 371 kts 26°
2026-05-04 14:46 59.36031 17.99565 14358 ft 362 kts 14°
2026-05-04 14:46 59.38399 18.01012 13903 ft 354 kts
2026-05-04 14:46 59.40783 18.02274 13330 ft 356 kts
2026-05-04 14:47 59.43182 18.03527 12701 ft 357 kts
2026-05-04 14:47 59.45587 18.04674 12104 ft 355 kts
2026-05-04 14:47 59.48014 18.05537 11503 ft 354 kts
2026-05-04 14:47 59.50434 18.06355 10932 ft 353 kts
2026-05-04 14:48 59.52849 18.07156 10414 ft 350 kts
2026-05-04 14:48 59.55232 18.07936 9946 ft 345 kts
2026-05-04 14:48 59.57589 18.08699 9489 ft 341 kts
2026-05-04 14:48 59.59908 18.09445 9005 ft 336 kts
2026-05-04 14:49 59.62189 18.10161 8535 ft 333 kts
2026-05-04 14:49 59.64463 18.10851 8050 ft 330 kts
2026-05-04 14:49 59.66712 18.11511 7484 ft 322 kts
2026-05-04 14:49 59.68923 18.12130 6581 ft 319 kts
2026-05-04 14:50 59.71114 18.12697 5722 ft 316 kts
2026-05-04 14:50 59.73255 18.13227 4880 ft 313 kts
2026-05-04 14:50 59.75412 18.13744 3986 ft 312 kts
2026-05-04 14:50 59.77537 18.13738 3153 ft 300 kts 342°
2026-05-04 14:51 59.79282 18.12041 2983 ft 264 kts 314°
2026-05-04 14:51 59.80266 18.09298 2852 ft 231 kts 285°
2026-05-04 14:51 59.80396 18.06357 2731 ft 205 kts 256°
2026-05-04 14:51 59.79886 18.03811 2602 ft 195 kts 238°
2026-05-04 14:52 59.78999 18.01886 2515 ft 186 kts 220°
2026-05-04 14:52 59.77897 18.00724 2491 ft 174 kts 204°
2026-05-04 14:52 59.76758 18.00225 2418 ft 163 kts 196°
2026-05-04 14:52 59.75663 17.99823 2281 ft 158 kts 196°
2026-05-04 14:53 59.74595 17.99429 2092 ft 155 kts 196°
2026-05-04 14:53 59.73538 17.99042 1894 ft 154 kts 197°
2026-05-04 14:53 59.72493 17.98660 1690 ft 153 kts 196°
2026-05-04 14:53 59.71446 17.98277 1481 ft 152 kts 196°
2026-05-04 14:54 59.70426 17.97907 1287 ft 145 kts 195°
2026-05-04 14:54 59.69470 17.97561 1099 ft 132 kts 194°
2026-05-04 14:54 59.68568 17.97231 912 ft 129 kts 195°
2026-05-04 14:54 59.67685 17.96911 721 ft 130 kts 192°
2026-05-04 14:55 59.66803 17.96578 519 ft 127 kts 195°
2026-05-04 14:55 59.65932 17.96270 364 ft 127 kts 196°
2026-05-04 14:55 59.65063 17.95956 178 ft 127 kts 196°
2026-05-04 14:55 59.64252 17.95661 111 ft 99 kts 190°
2026-05-04 14:56 59.63745 17.95475 116 ft 49 kts 190°
2026-05-04 14:56 59.63519 17.95386 121 ft 28 kts 196°
2026-05-04 14:56 59.63354 17.95221 120 ft 26 kts 216°
2026-05-04 14:56 59.63240 17.95000 122 ft 16 kts 254°
2026-05-04 14:57 59.63318 17.94910 119 ft 17 kts
2026-05-04 14:57 59.63449 17.94962 119 ft 22 kts 10°
2026-05-04 14:57 59.63613 17.95020 114 ft 25 kts 12°
2026-05-04 14:57 59.63797 17.95089 110 ft 28 kts 11°
2026-05-04 14:58 59.63998 17.95161 109 ft 30 kts 10°
2026-05-04 14:58 59.64194 17.95234 107 ft 30 kts 10°
2026-05-04 14:58 59.64395 17.95306 106 ft 30 kts
2026-05-04 14:58 59.64600 17.95379 105 ft 30 kts 11°
2026-05-04 14:59 59.64803 17.95458 107 ft 30 kts 11°
2026-05-04 14:59 59.65001 17.95520 113 ft 27 kts
2026-05-04 14:59 59.65361 17.95347 125 ft 26 kts 344°
2026-05-04 15:00 59.65546 17.95249 125 ft 29 kts 345°
2026-05-04 15:00 59.65716 17.95158 128 ft 15 kts 342°
2026-05-04 15:00 59.65745 17.94982 124 ft 17 kts 256°
2026-05-04 15:01 59.65677 17.94449 123 ft 22 kts 256°
2026-05-04 15:01 59.65639 17.94142 121 ft 25 kts 256°
2026-05-04 15:01 59.65591 17.93769 114 ft 31 kts 256°
2026-05-04 15:01 59.65543 17.93384 111 ft 29 kts 256°
2026-05-04 15:02 59.65494 17.93008 112 ft 26 kts 253°
2026-05-04 15:02 59.65452 17.92783 112 ft 17 kts 249°
2026-05-04 15:02 59.65366 17.92697 112 ft 16 kts 146°
2026-05-04 15:02 59.65338 17.92845 112 ft 8 kts 100°
2026-05-04 15:03 59.65333 17.92898 112 ft 1 kts 99°
2026-05-04 15:03 59.65333 17.92900 112 ft 0 kts 99°